Weather History for Guymon, OK

Change the Weather History Date:

Monday, June 10, 2013

  Actual Average Record
Temperature  
Mean Temperature 88 °F 72 °F  
Max Temperature 106 °F 86 °F 106 °F (2013)
Min Temperature 69 °F 59 °F 50 °F (2014)
Degree Days  
Heating Degree Days 0 0  
Month to date heating degree days 0 6  
Since 1 June heating degree days 0 6  
Since 1 July heating degree days 4311 4455  
Cooling Degree Days 23 8  
Month to date cooling degree days 88 68  
Year to date cooling degree days 292 176  
Since 1 June cooling degree days 88 68  
Growing Degree Days 37 (Base 50)    
Moisture  
Dew Point 51 °F    
Average Humidity 39    
Maximum Humidity 66    
Minimum Humidity 11    
Precipitation  
Precipitation 0.00 in 0.12 in 0.78 in (1999)
Month to date precipitation 0.82 1.21  
Year to date precipitation 3.17 7.46  
Snow  
Snow 0.00 in - - ()
Month to date snowfall T  
Since 1 June snowfall T  
Since 1 July snowfall 22.3  
Snow Depth 0.00 in    
Sea Level Pressure  
Sea Level Pressure 29.71 in    
Wind  
Wind Speed 19 mph (SSW)    
Max Wind Speed 29 mph    
Max Gust Speed 38 mph    
Visibility 10 miles    
Events      
T = Trace of Precipitation, MM = Missing Value Source: NWS Daily Summary

Daily Weather History Graph

Daily Weather History Graph

Search for Another Location

Airport:

Trip Planner

Search our weather history database for the weather conditions in past years. The results will help you decide how hot, cold, wet, or windy it might be!

Date:

Astronomy

Jun. 10, 2013 Rise Set
Actual Time 6:26 AM CDT 9:04 PM CDT
Civil Twilight 5:56 AM CDT 9:34 PM CDT
Nautical Twilight 5:18 AM CDT 10:12 PM CDT
Astronomical Twilight 4:36 AM CDT 10:55 PM CDT
Moon 8:15 AM CDT (6/10) 10:35 PM CDT (6/10)
Length of Visible Light 15h 38m
Length of Day
14h 37m
Waxing Crescent, 4% of the Moon is Illuminated
Jun 10
Waxing Crescent
Jun 16
First Quarter
Jun 23
Full
Jun 29
Last Quarter
Jul 8
New

Hourly Weather History & Observations

Time (CDT) Temp. Heat Index Dew Point Humidity Pressure Visibility Wind Dir Wind Speed Gust Speed Precip Events Conditions
12:53 AM 73.0 °F - 57.9 °F 59% 29.79 in 10.0 mi South 11.5 mph - N/A   Clear
1:53 AM 70.0 °F - 57.0 °F 63% 29.78 in 10.0 mi SSW 9.2 mph - N/A   Clear
2:53 AM 69.1 °F - 57.9 °F 68% 29.77 in 10.0 mi SSW 10.4 mph - N/A   Clear
3:53 AM 70.0 °F - 55.9 °F 61% 29.76 in 10.0 mi SSW 15.0 mph - N/A   Clear
4:53 AM 73.0 °F - 55.0 °F 53% 29.74 in 10.0 mi SW 19.6 mph 25.3 mph N/A   Clear
5:53 AM 71.1 °F - 55.0 °F 57% 29.74 in 10.0 mi SSW 18.4 mph - N/A   Clear
6:53 AM 70.0 °F - 55.0 °F 59% 29.76 in 10.0 mi SSW 16.1 mph - N/A   Clear
7:53 AM 73.9 °F - 55.0 °F 52% 29.76 in 10.0 mi SSW 16.1 mph - N/A   Clear
8:53 AM 81.0 °F 80.5 °F 54.0 °F 39% 29.75 in 10.0 mi SW 21.9 mph 32.2 mph N/A   Clear
9:53 AM 87.1 °F 85.1 °F 54.0 °F 32% 29.75 in 10.0 mi SW 24.2 mph 31.1 mph N/A   Clear
10:53 AM 91.0 °F 88.7 °F 54.0 °F 28% 29.74 in 10.0 mi SW 19.6 mph 26.5 mph N/A   Clear
11:53 AM 97.0 °F 94.6 °F 54.0 °F 23% 29.73 in 10.0 mi SSW 20.7 mph 28.8 mph N/A   Clear
12:53 PM 100.0 °F 97.9 °F 53.1 °F 21% 29.71 in 10.0 mi SSW 23.0 mph 28.8 mph N/A   Clear
1:53 PM 104.0 °F - 44.1 °F 13% 29.68 in 10.0 mi SSW 26.5 mph 34.5 mph N/A   Clear
2:53 PM 105.1 °F - 44.1 °F 13% 29.66 in 10.0 mi SSW 25.3 mph 34.5 mph N/A   Clear
3:53 PM 105.1 °F - 44.1 °F 13% 29.65 in 10.0 mi SSW 23.0 mph 34.5 mph N/A   Clear
4:53 PM 105.1 °F - 41.0 °F 11% 29.63 in 10.0 mi SSW 24.2 mph 32.2 mph N/A   Clear
5:53 PM 100.9 °F - 43.0 °F 14% 29.62 in 10.0 mi South 20.7 mph 31.1 mph N/A   Clear
6:53 PM 100.0 °F - 45.0 °F 15% 29.62 in 10.0 mi South 21.9 mph 32.2 mph N/A   Clear
7:53 PM 97.0 °F - 48.0 °F 19% 29.65 in 10.0 mi South 19.6 mph 28.8 mph N/A   Clear
8:53 PM 93.0 °F - 48.9 °F 22% 29.65 in 10.0 mi South 17.3 mph - N/A   Clear
9:53 PM 89.1 °F - 48.9 °F 25% 29.66 in 10.0 mi South 18.4 mph 25.3 mph N/A   Clear
10:53 PM 87.1 °F - 48.9 °F 27% 29.68 in 10.0 mi South 18.4 mph - N/A   Clear
11:53 PM 84.9 °F - 50.0 °F 30% 29.69 in 10.0 mi South 16.1 mph 25.3 mph N/A   Clear